Location: Caseificio
(44.7500°N, 11.0500°E)
Time: 16:49:30
(UTC+00:00)

Cosmos 1943 Rocket - Pass Details

Date: 26 May 2022
Orbit: 810 x 845 km, 71.0° (Epoch: 06 July)

Event Time Altitude Azimuth Distance (km) Brightness Sun altitude
Rises 01:26:42 0° 331° (NNW) 3,412 5.8 -17.4°
Reaches altitude 10° 01:29:10 10° 329° (NNW) 2,474 5.0 -17.2°
Maximum altitude 01:34:47 64° 249° (WSW) 931 2.2 -16.6°
Enters shadow 01:39:44 13° 170° (S) 2,224 4.0 -16.1°
